Location: Kawakawa
(35.3830°S, 174.0670°E)
Time: 17:29:09
(UTC+13:00)

NOSS 3-2 (C) - Pass Details

Date: 24 January 2019
Orbit: 820 x 1393 km, 63.4° (Epoch: 19 October)

Event Time Altitude Azimuth Distance (km) Brightness Sun altitude
Exits shadow 23:03:43 44° 44° (NE) 1,801 4.3 -24.6°
Maximum altitude 23:04:56 46° 66° (ENE) 1,731 4.3 -24.7°
Drops below altitude 10° 23:12:25 10° 136° (SE) 3,232 6.3 -25.7°
Sets 23:15:11 0° 141° (SE) 4,127 6.9 -26.0°
